User: anonymous   Login
Location: Corralito
(10.2667°N, 66.9500°W)
Time: 16:56:07
(UTC+00:00)
Language:

Cosmos 1190 Rocket - Orbit

View from above orbital plane
View from above orbital plane
View from above satellite
View from above satellite

Ground track
Ground track

The orbit data is extracted from the following two-line orbital elements,

1 11870U 80056B   24106.03287322  .00000343  00000-0  12274-3 0  9995
2 11870  74.0521 306.4623 0016168 355.6369   4.4641 14.37607535293049
Epoch (UTC): 15 April 2024 00:47:20
Eccentricity: 0.0016168
inclination: 74.0521°
perigee height: 755 km
apogee height: 778 km
right ascension of ascending node: 306.4623°
argument of perigee: 355.6369°
revolutions per day: 14.37607535
mean anomaly at epoch: 4.4641°
orbit number at epoch: 29304

The dashed part of the orbit path shows where the satellite is in the earth's shadow,  

DLR